Terminal Aerodrome Forecast
Issued by NWS

Home | Current Version | Previous Version | Graphics & Text | Print | Product List | Glossary On
Versions: 1 2 3 4 5 6 7 8 9 10 11 12 13 14 15 16 17 18 19 20 21
000
FTUS42 KMHX 202302 AAA
TAFPGV
TAF AMD
KPGV 202302Z 2023/2118 07011G14KT P6SM BKN008
     FM210600 03006KT P6SM BKN007
     FM211500 04005KT P6SM BKN015
      AMD LTD TO CLD VIS AND WIND=

USA.gov is the U.S. government's official web portal to all federal, state and local government web resources and services.